Location: Jackson Park
(37.2862°N, 79.9123°W)
Time: 22:14:51
(UTC+00:00)

Explorer 11/Cluster Stage 4 - Pass Details

Date: 10 May 2026
Orbit: 463 x 1173 km, 28.8° (Epoch: 5 June)

Event Time Altitude Azimuth Distance (km) Brightness Sun altitude
Rises 06:43:11 0° 243° (WSW) 3,184 - -31.4°
Reaches altitude 10° 06:46:11 10° 231° (SW) 2,122 - -31.1°
Maximum altitude 06:50:11 25° 176° (S) 1,215 - -30.8°
Drops below altitude 10° 06:53:39 10° 120° (ESE) 1,812 - -30.5°
Sets 06:56:01 0° 106° (ESE) 2,621 - -30.2°
